TimeMST,TemperatureF,Dew PointF,Humidity,Sea Level PressureIn,VisibilityMPH,Wind Direction,Wind SpeedMPH,Gust SpeedMPH,PrecipitationIn,Events,Conditions,WindDirDegrees,DateUTC
12:53 AM,44.1,23.0,43,30.22,10.0,SSW,6.9,-,N/A,,Clear,210,2013-03-02 07:53:00
2:53 AM,39.0,24.1,55,30.21,10.0,NNW,5.8,-,N/A,,Clear,330,2013-03-02 09:53:00
3:53 AM,39.0,23.0,53,30.19,10.0,WSW,5.8,-,N/A,,Clear,250,2013-03-02 10:53:00
5:53 AM,39.0,23.0,53,30.19,10.0,WSW,4.6,-,N/A,,Clear,250,2013-03-02 12:53:00
6:53 AM,37.9,23.0,55,30.22,10.0,NW,5.8,-,N/A,,Clear,320,2013-03-02 13:53:00
8:53 AM,48.0,25.0,41,30.17,10.0,Calm,Calm,-,N/A,,Clear,0,2013-03-02 15:53:00
9:53 AM,48.9,28.0,44,30.16,10.0,Calm,Calm,-,N/A,,Clear,0,2013-03-02 16:53:00
10:53 AM,52.0,26.1,37,30.15,10.0,ESE,3.5,-,N/A,,Clear,110,2013-03-02 17:53:00
11:53 AM,54.0,25.0,33,30.11,10.0,ENE,4.6,-,N/A,,Clear,60,2013-03-02 18:53:00
12:53 PM,53.1,25.0,34,30.09,10.0,Calm,Calm,-,N/A,,Clear,0,2013-03-02 19:53:00
1:53 PM,55.0,24.1,30,30.06,10.0,Calm,Calm,-,N/A,,Clear,0,2013-03-02 20:53:00
2:53 PM,53.1,26.1,35,30.07,10.0,ESE,5.8,-,N/A,,Clear,120,2013-03-02 21:53:00
3:53 PM,52.0,28.0,40,30.06,10.0,Calm,Calm,-,N/A,,Clear,0,2013-03-02 22:53:00
4:53 PM,51.1,24.1,35,30.05,10.0,Calm,Calm,-,N/A,,Clear,0,2013-03-02 23:53:00
6:53 PM,41.0,28.0,60,30.05,10.0,WSW,10.4,-,N/A,,Clear,250,2013-03-03 01:53:00
7:53 PM,43.0,25.0,49,30.01,10.0,SSE,9.2,-,N/A,,Clear,160,2013-03-03 02:53:00
8:53 PM,39.9,26.1,58,29.94,10.0,SSE,6.9,-,N/A,,Clear,160,2013-03-03 03:53:00
9:53 PM,45.0,24.1,44,29.89,10.0,SSW,9.2,-,N/A,,Clear,200,2013-03-03 04:53:00
10:53 PM,41.0,25.0,53,29.86,10.0,East,4.6,-,N/A,,Clear,100,2013-03-03 05:53:00
11:53 PM,37.9,26.1,62,29.82,10.0,Variable,3.5,16.1,N/A,,Clear,0,2013-03-03 06:53:00